Middlesboro, KY

5:02 AM CDT on August 18, 2017 (GMT -0500)
Middlesboro

Weather History for K1A6 - November, 2011

Change the Weather History Date:

Sunday, November 13, 2011

  Actual Average (KLOZ) Record (KLOZ)
Temperature  
Mean Temperature 62 °F -  
Max Temperature 69 °F 56 °F 77 °F (1978)
Min Temperature 55 °F 33 °F 13 °F (1976)
Degree Days  
Heating Degree Days 3    
Growing Degree Days 12 (Base 50)    
Moisture  
Dew Point 41 °F    
Average Humidity 49    
Maximum Humidity 64    
Minimum Humidity 38    
Precipitation  
Precipitation 0.00 in - - ()
Sea Level Pressure  
Sea Level Pressure 30.04 in    
Wind  
Wind Speed 10 mph (SSW)    
Max Wind Speed 18 mph    
Max Gust Speed 33 mph    
Visibility 10 miles    
Events      
Averages and records for this station are not official NWS values.
T = Trace of Precipitation, MM = Missing Value Source: NWS Daily Summary

Daily Weather History Graph

Daily Weather History Graph

Search for Another Location

Airport or City:

Trip Planner

Search our weather history database for the weather conditions in past years. The results will help you decide how hot, cold, wet, or windy it might be!

Date:

Astronomy

Nov. 13, 2011 Rise Set
Actual Time 6:10 AM CST 4:27 PM CST
Civil Twilight 5:42 AM CST 4:55 PM CST
Nautical Twilight 5:11 AM CST 5:26 PM CST
Astronomical Twilight 4:41 AM CST 5:56 PM CST
Moon 6:38 PM CST (11/13) 8:39 AM CST (11/13)
Length of Visible Light 11h 12m
Length of Day
10h 17m
Waning Gibbous, 92% of the Moon is Illuminated
Nov 13
Waning Gibbous
Nov 18
Last Quarter
Nov 25
New
Dec 2
First Quarter
Dec 10
Full

Hourly Weather History & Observations

Time (CST) Temp. Dew Point Humidity Pressure Visibility Wind Dir Wind Speed Gust Speed Precip Events Conditions
12:35 AM 55.4 °F 33.8 °F 44% 30.10 in 10.0 mi SSW 10.4 mph 19.6 mph N/A   Clear
12:55 AM 55.4 °F 33.8 °F 44% 30.11 in 10.0 mi SSW 15.0 mph 25.3 mph N/A   Clear
1:15 AM 55.4 °F 33.8 °F 44% 30.10 in 10.0 mi SW 10.4 mph 17.3 mph N/A   Clear
1:35 AM 55.4 °F 33.8 °F 44% 30.09 in 10.0 mi South 9.2 mph 26.5 mph N/A   Clear
2:15 AM 55.4 °F 32.0 °F 41% 30.10 in 10.0 mi South 10.4 mph 18.4 mph N/A   Clear
2:35 AM 55.4 °F 32.0 °F 41% 30.11 in 10.0 mi South 4.6 mph - N/A   Clear
2:55 AM 55.4 °F 32.0 °F 41% 30.10 in 10.0 mi SSW 9.2 mph 18.4 mph N/A   Clear
3:15 AM 55.4 °F 30.2 °F 38% 30.09 in 10.0 mi SSW 18.4 mph 33.4 mph N/A   Clear
3:35 AM 55.4 °F 30.2 °F 38% 30.09 in 10.0 mi SSW 10.4 mph 20.7 mph N/A   Clear
3:55 AM 55.4 °F 30.2 °F 38% 30.09 in 10.0 mi SSW 10.4 mph 18.4 mph N/A   Clear
4:15 AM 55.4 °F 30.2 °F 38% 30.10 in 10.0 mi SSW 6.9 mph 25.3 mph N/A   Clear
4:35 AM 55.4 °F 30.2 °F 38% 30.11 in 10.0 mi SSW 5.8 mph - N/A   Clear
4:55 AM 55.4 °F 30.2 °F 38% 30.11 in 10.0 mi South 10.4 mph 25.3 mph N/A   Scattered Clouds
5:35 AM 55.4 °F 30.2 °F 38% 30.11 in 10.0 mi SSE 5.8 mph 19.6 mph N/A   Mostly Cloudy
5:55 AM 55.4 °F 30.2 °F 38% 30.11 in 10.0 mi South 3.5 mph - N/A   Mostly Cloudy
6:15 AM 55.4 °F 30.2 °F 38% 30.12 in 10.0 mi SSW 6.9 mph 20.7 mph N/A   Mostly Cloudy
6:55 AM 55.4 °F 30.2 °F 38% 30.13 in 10.0 mi South 8.1 mph 19.6 mph N/A   Overcast
7:15 AM 55.4 °F 30.2 °F 38% 30.13 in 10.0 mi South 13.8 mph 21.9 mph N/A   Overcast
7:55 AM 57.2 °F 32.0 °F 38% 30.11 in 10.0 mi South 8.1 mph 20.7 mph N/A   Overcast
8:15 AM 57.2 °F 32.0 °F 38% 30.12 in 10.0 mi South 11.5 mph 17.3 mph N/A   Overcast
8:35 AM 57.2 °F 33.8 °F 41% 30.12 in 10.0 mi South 13.8 mph 20.7 mph N/A   Overcast
8:55 AM 57.2 °F 33.8 °F 41% 30.12 in 10.0 mi South 9.2 mph 21.9 mph N/A   Overcast
9:15 AM 57.2 °F 35.6 °F 44% 30.12 in 10.0 mi South 11.5 mph 18.4 mph N/A   Overcast
9:35 AM 59.0 °F 35.6 °F 42% 30.11 in 10.0 mi SSW 13.8 mph 20.7 mph N/A   Overcast
9:55 AM 59.0 °F 35.6 °F 42% 30.10 in 10.0 mi SSW 13.8 mph 23.0 mph N/A   Mostly Cloudy
10:15 AM 60.8 °F 37.4 °F 42% 30.09 in 10.0 mi South 18.4 mph 25.3 mph N/A   Scattered Clouds
10:35 AM 60.8 °F 37.4 °F 42% 30.07 in 10.0 mi South 13.8 mph 23.0 mph N/A   Scattered Clouds
10:55 AM 60.8 °F 39.2 °F 45% 30.05 in 10.0 mi South 12.7 mph 19.6 mph N/A   Clear
11:15 AM 62.6 °F 42.8 °F 48% 30.03 in 10.0 mi SSW 6.9 mph 19.6 mph N/A   Clear
11:35 AM 62.6 °F 44.6 °F 52% 30.02 in 10.0 mi SSW 5.8 mph 18.4 mph N/A   Clear
11:55 AM 64.4 °F 44.6 °F 49% 30.01 in 10.0 mi SSW 10.4 mph 24.2 mph N/A   Clear
12:35 PM 64.4 °F 46.4 °F 52% 29.99 in 10.0 mi SSW 12.7 mph 25.3 mph N/A   Clear
12:55 PM 64.4 °F 46.4 °F 52% 29.97 in 10.0 mi SW 13.8 mph 28.8 mph N/A   Clear
1:15 PM 66.2 °F 48.2 °F 52% 29.97 in 10.0 mi SSW 13.8 mph 20.7 mph N/A   Scattered Clouds
1:35 PM 68.0 °F 48.2 °F 49% 29.97 in 10.0 mi SW 10.4 mph 29.9 mph N/A   Clear
1:55 PM 69.8 °F 50.0 °F 49% 29.96 in 10.0 mi SW 8.1 mph 16.1 mph N/A   Clear
2:15 PM 66.2 °F 50.0 °F 56% 29.96 in 10.0 mi SSW 9.2 mph 20.7 mph N/A   Clear
2:35 PM 68.0 °F 50.0 °F 52% 29.96 in 10.0 mi SW 17.3 mph 28.8 mph N/A   Clear
2:55 PM 66.2 °F 50.0 °F 56% 29.96 in 10.0 mi SSW 6.9 mph 25.3 mph N/A   Clear
3:15 PM 66.2 °F 50.0 °F 56% 29.96 in 10.0 mi South 8.1 mph 21.9 mph N/A   Clear
3:35 PM 66.2 °F 50.0 °F 56% 29.96 in 10.0 mi SSW 9.2 mph 17.3 mph N/A   Clear
3:55 PM 64.4 °F 50.0 °F 59% 29.97 in 10.0 mi SW 8.1 mph 17.3 mph N/A   Clear
4:15 PM 64.4 °F 50.0 °F 59% 29.97 in 10.0 mi SSW 8.1 mph 21.9 mph N/A   Clear
4:35 PM 64.4 °F 50.0 °F 59% 29.98 in 10.0 mi SSW 11.5 mph 18.4 mph N/A   Clear
4:55 PM 64.4 °F 50.0 °F 59% 29.98 in 10.0 mi SW 9.2 mph 20.7 mph N/A   Clear
5:15 PM 64.4 °F 50.0 °F 59% 29.99 in 10.0 mi SSW 5.8 mph 18.4 mph N/A   Clear
5:35 PM 64.4 °F 50.0 °F 59% 29.99 in 10.0 mi South 13.8 mph 20.7 mph N/A   Clear
5:55 PM 64.4 °F 51.8 °F 64% 29.99 in 10.0 mi South 10.4 mph 17.3 mph N/A   Clear
6:15 PM 64.4 °F 50.0 °F 59% 30.00 in 10.0 mi South 9.2 mph - N/A   Clear
6:35 PM 64.4 °F 50.0 °F 59% 30.00 in 10.0 mi South 10.4 mph - N/A   Clear
6:55 PM 64.4 °F 51.8 °F 64% 29.99 in 10.0 mi SSW 6.9 mph 27.6 mph N/A   Clear
7:15 PM 64.4 °F 51.8 °F 64% 30.00 in 10.0 mi SW 10.4 mph 19.6 mph N/A   Clear
7:35 PM 64.4 °F 51.8 °F 64% 30.00 in 10.0 mi SSW 12.7 mph 23.0 mph N/A   Clear
7:55 PM 64.4 °F 51.8 °F 64% 29.99 in 10.0 mi SSW 8.1 mph - N/A   Clear
8:15 PM 64.4 °F 51.8 °F 64% 30.00 in 10.0 mi SSW 9.2 mph 25.3 mph N/A   Clear
8:35 PM 64.4 °F 51.8 °F 64% 30.00 in 10.0 mi SSW 13.8 mph 32.2 mph N/A   Clear
8:55 PM 64.4 °F 51.8 °F 64% 30.01 in 10.0 mi South 13.8 mph 24.2 mph N/A   Clear
9:15 PM 64.4 °F 53.6 °F 68% 30.01 in 10.0 mi South 11.5 mph 21.9 mph N/A   Clear
9:35 PM 64.4 °F 53.6 °F 68% 30.01 in 10.0 mi SSW 11.5 mph 24.2 mph N/A   Clear
9:55 PM 64.4 °F 53.6 °F 68% 30.01 in 10.0 mi South 11.5 mph 24.2 mph N/A   Clear
10:15 PM 64.4 °F 53.6 °F 68% 30.01 in 10.0 mi SSW 10.4 mph 25.3 mph N/A   Clear
10:35 PM 64.4 °F 53.6 °F 68% 30.02 in 10.0 mi South 10.4 mph 24.2 mph N/A   Scattered Clouds
10:55 PM 64.4 °F 53.6 °F 68% 30.02 in 10.0 mi South 8.1 mph - N/A   Mostly Cloudy
11:15 PM 64.4 °F 53.6 °F 68% 30.02 in 10.0 mi SSW 6.9 mph 16.1 mph N/A   Overcast
11:35 PM 64.4 °F 53.6 °F 68% 30.02 in 10.0 mi South 10.4 mph - N/A   Overcast
11:55 PM 64.4 °F 55.4 °F 73% 30.02 in 10.0 mi South 10.4 mph 17.3 mph N/A   Overcast